星链-34313 (STARLINK-34313)

导读

STARLINK-34313是美国SpaceX星链星座的一颗卫星,于2025年5月27日发射升空。星链计划旨在构建全球卫星互联网星座,为全球偏远地区及地面网络覆盖不足区域提供低时延宽带互联网服务,该卫星加入后进一步扩充了星链星座的在轨卫星规模,助力完善星座服务能力。

Basic Information
目录编号:
64166
目录名称:
STARLINK-34313
国际标识:
2025-112W
轨道中心:
EARTH
卫星名称:
星链-34313
卫星全名:
星链-34313 (STARLINK-34313)
卫星状态:
在轨 (已飞行473 天)
发射日期:
2025-05-27 UTC
国别 :
美国 (US)
星等 :
--
This satellite is enrolled in the Space Conjunction Data Service (SCDS) and the current flight risk assessment level is: No High Risk
Orbit Information
数据来源 国际轨道数据
星历时间: 2026-09-12T09:54:19+0800
13小时前
查看轨道信息
半长轴: 6843.669km
偏心率: 0.0000861
轨道倾角: 97.283°
近地点辐角 99.880°
升交点赤经 302.216°
平近点角 260.254°
近地点: 464.942km
远地点: 466.122km
周期: 93.906分钟
每日圈数: 15.33449
Detailed Information
固有亮度:
5
最大亮度:
2.5
卫星平台:
Starlink V1.0
覆盖范围:
全球
运营商:
太空探索技术公司
运营商所在国:
美国
制造商(研发单位):
太空探索技术公司
制造商所在国:
美国
使用方式:
暂无
Satellite Introduction
Starlink 计划是 SpaceX 推出的全球卫星互联网项目,通过发射低轨道卫星,为全球尤其是偏远地区提供高速、低延迟的互联网服务。自 2019 年起,Starlink 已部署数千颗卫星,旨在缩小全球数字鸿沟,推动互联网普及。该项目还为军事、航空等行业提供通信支持,带来广泛经济效益。
2D Orbit Map
3D Orbit Map
Orbit Altitude Analysis Chart
Orbit Inclination Analysis Chart
Orbit Comprehensive Analysis Chart
View Comprehensive Chart
Conjunction Data List
Event ID Objects TCA Miss Dist (km) Collision Risk Probability Collision Risk Index (CRI) Action
CDM_260914-205106-416606-930821
2026-09-14T
20:51:40+0000
0.653 km
远距离
3.639647E-5 中风险 0.66
CDM_260914-213806-416606-930821
2026-09-14T
21:38:39+0000
1.701 km
极远距离
1.621607E-6 低风险 0.39
CDM_260913-230804-941806-416621
2026-09-13T
23:08:59+0000
2.779 km
极远距离
1.449412E-6 低风险 0.38
CDM_260914-133905-405406-416621
2026-09-14T
13:39:01+0000
2.776 km
极远距离
1.30999E-6 低风险 0.37
CDM_260905-020605-299006-416621
2026-09-05T
02:06:38+0000
2.961 km
极远距离
1.071908E-6 低风险 0.36
CDM_260913-143605-229706-416621
2026-09-13T
14:36:43+0000
2.747 km
极远距离
9.175726E-7 极低风险 0.34
Miss Distance Evolution Trend with All Objects
Collision Probability Evolution Trend with All Objects